^^
Saratoga-Weather Station Historical Data
Daily Summary for August 7, 2020 Units:  Metric    English   Both
Daily Weekly Monthly Yearly Custom
  High: Low: Average:
Temperature: 19 °C 9.1 °C 13.7 °C
Dew Point: 11.2 °C 5.5 °C 8.1 °C
Humidity: 86% 51% 70%
Wind Speed: 16.3km/h 0km/h 4.2km/h
Wind Gust: 22.5km/h - -
Wind- - West
Pressure: 1011.5 hPa 1003.7 hPa -
Precipitation: 0.0 mm    
Historical Graphs
 
 
Tabular Data for August 7, 2020
Time Temperature Dew Point Pressure Wind Wind Speed Wind Gust Humidity Rainfall Rate (Hourly) solar
00:03 11.2 °C 7.9 °C 1003.7 hPa Calm   1.6 km/h 80% 0.0 mm 0 W/m2
00:08 11.2 °C 8.1 °C 1003.7 hPa Calm     81% 0.0 mm 0 W/m2
00:13 11.2 °C 8.1 °C 1003.7 hPa Calm     81% 0.0 mm 0 W/m2
00:18 11.2 °C 8.1 °C 1003.7 hPa Calm   1.6 km/h 81% 0.0 mm 0 W/m2
00:23 11.2 °C 7.7 °C 1003.7 hPa Calm     79% 0.0 mm 0 W/m2
00:28 11.3 °C 7.8 °C 1003.7 hPa Calm   1.6 km/h 79% 0.0 mm 0 W/m2
00:33 11.4 °C 7.7 °C 1003.7 hPa Calm     78% 0.0 mm 0 W/m2
00:38 11.6 °C 7.5 °C 1003.7 hPa NNE 1.4 km/h 3.2 km/h 76% 0.0 mm 0 W/m2
00:43 11.7 °C 7.8 °C 1004.1 hPa ENE 3.2 km/h 3.2 km/h 77% 0.0 mm 0 W/m2
00:48 11.8 °C 7.7 °C 1003.7 hPa Calm   3.2 km/h 76% 0.0 mm 0 W/m2
00:53 11.8 °C 8.1 °C 1003.7 hPa Calm   1.6 km/h 78% 0.0 mm 0 W/m2
00:58 11.7 °C 7.8 °C 1004.1 hPa Calm   1.6 km/h 77% 0.0 mm 0 W/m2
01:03 11.7 °C 7.6 °C 1003.7 hPa SW 1.4 km/h 3.2 km/h 76% 0.0 mm 0 W/m2
01:08 11.7 °C 7.4 °C 1004.1 hPa Calm     75% 0.0 mm 0 W/m2
01:13 11.7 °C 7.4 °C 1004.1 hPa West 1.4 km/h 4.8 km/h 75% 0.0 mm 0 W/m2
01:18 11.8 °C 7.1 °C 1004.1 hPa West 3.2 km/h 3.2 km/h 73% 0.0 mm 0 W/m2
01:23 12.1 °C 7.8 °C 1004.1 hPa Calm   1.6 km/h 75% 0.0 mm 0 W/m2
01:28 12.1 °C 7.4 °C 1004.1 hPa West 3.2 km/h 4.8 km/h 73% 0.0 mm 0 W/m2
01:33 12.3 °C 7.4 °C 1004.1 hPa West 4.7 km/h 6.4 km/h 72% 0.0 mm 0 W/m2
01:38 12.4 °C 7.5 °C 1004.1 hPa NW 4.7 km/h 4.8 km/h 72% 0.0 mm 0 W/m2
01:43 12.4 °C 7.5 °C 1004.1 hPa West 4.7 km/h 9.7 km/h 72% 0.0 mm 0 W/m2
01:48 12.3 °C 7.4 °C 1004.1 hPa West 4.7 km/h 11.3 km/h 72% 0.0 mm 0 W/m2
01:53 12.3 °C 7.4 °C 1004.1 hPa West 6.4 km/h 14.5 km/h 72% 0.0 mm 0 W/m2
01:58 12.2 °C 7.3 °C 1004.1 hPa NW 1.4 km/h 11.3 km/h 72% 0.0 mm 0 W/m2
02:03 12.2 °C 7.3 °C 1004.4 hPa West 6.4 km/h 9.7 km/h 72% 0.0 mm 0 W/m2
02:08 12.1 °C 7.4 °C 1004.4 hPa WNW 4.7 km/h 6.4 km/h 73% 0.0 mm 0 W/m2
02:13 11.9 °C 7.2 °C 1004.4 hPa West 4.7 km/h 11.3 km/h 73% 0.0 mm 0 W/m2
02:18 11.8 °C 7.3 °C 1004.4 hPa West 3.2 km/h 3.2 km/h 74% 0.0 mm 0 W/m2
02:23 11.7 °C 7.2 °C 1004.4 hPa West 3.2 km/h 6.4 km/h 74% 0.0 mm 0 W/m2
02:28 11.6 °C 7.3 °C 1004.4 hPa WNW 4.7 km/h 6.4 km/h 75% 0.0 mm 0 W/m2
02:33 11.4 °C 7.1 °C 1004.4 hPa West 4.7 km/h 4.8 km/h 75% 0.0 mm 0 W/m2
02:38 11.3 °C 7 °C 1004.4 hPa WNW 3.2 km/h 6.4 km/h 75% 0.0 mm 0 W/m2
02:43 11.2 °C 7.1 °C 1004.4 hPa West 4.7 km/h 6.4 km/h 76% 0.0 mm 0 W/m2
02:48 11.2 °C 7.1 °C 1004.4 hPa WNW 1.4 km/h 4.8 km/h 76% 0.0 mm 0 W/m2
02:53 11 °C 7.1 °C 1004.4 hPa West 1.4 km/h 6.4 km/h 77% 0.0 mm 0 W/m2
02:58 10.9 °C 7 °C 1004.4 hPa WNW 3.2 km/h 4.8 km/h 77% 0.0 mm 0 W/m2
03:03 10.8 °C 7.1 °C 1004.4 hPa WNW 3.2 km/h 6.4 km/h 78% 0.0 mm 0 W/m2
03:08 10.7 °C 7 °C 1004.4 hPa WSW 3.2 km/h 3.2 km/h 78% 0.0 mm 0 W/m2
03:13 10.6 °C 6.9 °C 1004.4 hPa West 1.4 km/h 9.7 km/h 78% 0.0 mm 0 W/m2
03:19 10.6 °C 6.9 °C 1004.7 hPa West 3.2 km/h 3.2 km/h 78% 0.0 mm 0 W/m2
03:24 10.6 °C 6.9 °C 1004.4 hPa WNW 1.4 km/h 6.4 km/h 78% 0.0 mm 0 W/m2
03:29 10.6 °C 6.9 °C 1004.4 hPa NW 1.4 km/h 4.8 km/h 78% 0.0 mm 0 W/m2
03:34 10.4 °C 6.7 °C 1004.7 hPa Calm   1.6 km/h 78% 0.0 mm 0 W/m2
03:39 10.2 °C 6.7 °C 1004.7 hPa NW 1.4 km/h 4.8 km/h 79% 0.0 mm 0 W/m2
03:44 10 °C 6.7 °C 1004.7 hPa NW 3.2 km/h 3.2 km/h 80% 0.0 mm 0 W/m2
03:49 9.8 °C 6.7 °C 1004.7 hPa WNW 4.7 km/h 4.8 km/h 81% 0.0 mm 0 W/m2
03:54 9.7 °C 6.6 °C 1004.7 hPa WNW 4.7 km/h 4.8 km/h 81% 0.0 mm 0 W/m2
03:59 9.8 °C 6.7 °C 1004.7 hPa WNW 1.4 km/h 8 km/h 81% 0.0 mm 0 W/m2
04:04 9.9 °C 6.6 °C 1004.7 hPa West 4.7 km/h 6.4 km/h 80% 0.0 mm 0 W/m2
04:09 10 °C 6.7 °C 1004.7 hPa West 3.2 km/h 4.8 km/h 80% 0.0 mm 0 W/m2
04:14 10.1 °C 6.8 °C 1004.7 hPa WNW 1.4 km/h 3.2 km/h 80% 0.0 mm 0 W/m2
04:19 10 °C 6.7 °C 1004.7 hPa West 3.2 km/h 6.4 km/h 80% 0.0 mm 0 W/m2
04:24 9.9 °C 6.6 °C 1004.7 hPa West 1.4 km/h 3.2 km/h 80% 0.0 mm 0 W/m2
04:29 9.8 °C 6.7 °C 1004.7 hPa West 1.4 km/h 4.8 km/h 81% 0.0 mm 0 W/m2
04:34 9.7 °C 6.6 °C 1004.7 hPa NW 3.2 km/h 4.8 km/h 81% 0.0 mm 0 W/m2
04:39 9.6 °C 6.7 °C 1004.7 hPa WNW 1.4 km/h 3.2 km/h 82% 0.0 mm 0 W/m2
04:44 9.4 °C 6.5 °C 1004.7 hPa Calm   1.6 km/h 82% 0.0 mm 0 W/m2
04:49 9.3 °C 6.6 °C 1004.7 hPa Calm   4.8 km/h 83% 0.0 mm 0 W/m2
04:54 9.2 °C 6.5 °C 1005.1 hPa NW 1.4 km/h 4.8 km/h 83% 0.0 mm 0 W/m2
04:59 9.1 °C 6.5 °C 1004.7 hPa West 4.7 km/h 4.8 km/h 84% 0.0 mm 0 W/m2
05:04 9.1 °C 6.5 °C 1004.7 hPa WSW 1.4 km/h 6.4 km/h 84% 0.0 mm 0 W/m2
05:09 9.1 °C 6.5 °C 1005.1 hPa WSW 1.4 km/h 6.4 km/h 84% 0.0 mm 0 W/m2
05:14 9.1 °C 6.4 °C 1005.1 hPa SW 3.2 km/h 3.2 km/h 83% 0.0 mm 0 W/m2
05:20 9.1 °C 6.4 °C 1005.1 hPa WSW 3.2 km/h 6.4 km/h 83% 0.0 mm 0 W/m2
05:25 9.1 °C 6.2 °C 1005.1 hPa West 3.2 km/h 3.2 km/h 82% 0.0 mm 0 W/m2
05:30 9.2 °C 6.1 °C 1005.1 hPa WSW 3.2 km/h 6.4 km/h 81% 0.0 mm 0 W/m2
05:35 9.1 °C 5.8 °C 1005.1 hPa WSW 3.2 km/h 6.4 km/h 80% 0.0 mm 5 W/m2
05:40 9.2 °C 5.9 °C 1005.1 hPa West 9.7 km/h 9.7 km/h 80% 0.0 mm 7 W/m2
05:45 9.3 °C 5.8 °C 1005.1 hPa WSW 1.4 km/h 3.2 km/h 79% 0.0 mm 9 W/m2
05:50 9.3 °C 5.8 °C 1005.1 hPa NW 1.4 km/h 4.8 km/h 79% 0.0 mm 11 W/m2
05:55 9.3 °C 5.8 °C 1005.1 hPa West 1.4 km/h 6.4 km/h 79% 0.0 mm 12 W/m2
06:00 9.3 °C 5.8 °C 1005.4 hPa NW 3.2 km/h 3.2 km/h 79% 0.0 mm 16 W/m2
06:05 9.4 °C 5.9 °C 1005.4 hPa WNW 3.2 km/h 9.7 km/h 79% 0.0 mm 18 W/m2
06:10 9.4 °C 5.8 °C 1005.4 hPa Calm   6.4 km/h 78% 0.0 mm 19 W/m2
06:15 9.4 °C 5.9 °C 1005.4 hPa Calm   3.2 km/h 79% 0.0 mm 21 W/m2
06:20 9.3 °C 5.8 °C 1005.4 hPa West 1.4 km/h 6.4 km/h 79% 0.0 mm 23 W/m2
06:25 9.3 °C 6 °C 1005.4 hPa SW 1.4 km/h 9.7 km/h 80% 0.0 mm 25 W/m2
06:30 9.3 °C 5.8 °C 1005.4 hPa SW 6.4 km/h 8 km/h 79% 0.0 mm 26 W/m2
06:35 9.4 °C 5.9 °C 1005.4 hPa Calm   4.8 km/h 79% 0.0 mm 28 W/m2
06:40 9.5 °C 5.9 °C 1005.4 hPa WNW 4.7 km/h 4.8 km/h 78% 0.0 mm 28 W/m2
06:45 9.7 °C 5.5 °C 1005.4 hPa West 3.2 km/h 8 km/h 75% 0.0 mm 30 W/m2
06:50 9.8 °C 5.6 °C 1005.8 hPa WNW 3.2 km/h 6.4 km/h 75% 0.0 mm 32 W/m2
06:55 9.9 °C 5.7 °C 1005.8 hPa WSW 1.4 km/h 6.4 km/h 75% 0.0 mm 32 W/m2
07:00 10 °C 5.6 °C 1005.8 hPa WNW 6.4 km/h 6.4 km/h 74% 0.0 mm 33 W/m2
07:05 10.1 °C 5.7 °C 1005.8 hPa WSW 3.2 km/h 4.8 km/h 74% 0.0 mm 33 W/m2
07:10 10.2 °C 5.6 °C 1005.8 hPa WNW 6.4 km/h 8 km/h 73% 0.0 mm 35 W/m2
07:15 10.2 °C 5.6 °C 1005.8 hPa NW 1.4 km/h 1.6 km/h 73% 0.0 mm 35 W/m2
07:20 10.3 °C 5.7 °C 1005.8 hPa Calm   8 km/h 73% 0.0 mm 35 W/m2
07:25 10.3 °C 5.7 °C 1005.8 hPa Calm   3.2 km/h 73% 0.0 mm 39 W/m2
07:30 10.4 °C 5.8 °C 1005.8 hPa SSW 3.2 km/h 11.3 km/h 73% 0.0 mm 49 W/m2
07:35 10.5 °C 5.9 °C 1005.8 hPa WNW 3.2 km/h 4.8 km/h 73% 0.0 mm 102 W/m2
07:40 10.6 °C 6 °C 1005.8 hPa NNW 3.2 km/h 3.2 km/h 73% 0.0 mm 237 W/m2
07:45 10.8 °C 6.2 °C 1005.8 hPa West 3.2 km/h 6.4 km/h 73% 0.0 mm 250 W/m2
07:50 11.1 °C 6.2 °C 1006.1 hPa WNW 1.4 km/h 4.8 km/h 72% 0.0 mm 265 W/m2
07:55 11.3 °C 6.2 °C 1006.1 hPa WSW 3.2 km/h 4.8 km/h 71% 0.0 mm 278 W/m2
08:00 11.5 °C 6.4 °C 1006.1 hPa NNW 3.2 km/h 6.4 km/h 71% 0.0 mm 290 W/m2
08:05 11.6 °C 6.3 °C 1006.1 hPa SSW 3.2 km/h 12.9 km/h 70% 0.0 mm 304 W/m2
08:10 11.8 °C 6.7 °C 1006.1 hPa NW 4.7 km/h 8 km/h 71% 0.0 mm 320 W/m2
08:15 12.1 °C 6.6 °C 1006.1 hPa West 4.7 km/h 6.4 km/h 69% 0.0 mm 330 W/m2
08:20 12.2 °C 6.3 °C 1006.4 hPa SW 4.7 km/h 11.3 km/h 67% 0.0 mm 346 W/m2
08:25 12.3 °C 6.3 °C 1006.4 hPa WSW 7.9 km/h 9.7 km/h 67% 0.0 mm 362 W/m2
08:30 12.3 °C 6.3 °C 1006.4 hPa SW 6.4 km/h 12.9 km/h 67% 0.0 mm 374 W/m2
08:35 12.3 °C 6.6 °C 1006.4 hPa WNW 3.2 km/h 12.9 km/h 68% 0.0 mm 390 W/m2
08:40 12.5 °C 6.8 °C 1006.4 hPa WNW 4.7 km/h 9.7 km/h 68% 0.0 mm 403 W/m2
08:45 12.7 °C 6.9 °C 1006.4 hPa NNW 4.7 km/h 14.5 km/h 68% 0.0 mm 418 W/m2
08:50 12.8 °C 7 °C 1006.4 hPa West 4.7 km/h 8 km/h 68% 0.0 mm 429 W/m2
08:56 12.9 °C 7.3 °C 1006.4 hPa NW 1.4 km/h 14.5 km/h 69% 0.0 mm 445 W/m2
09:01 13.1 °C 7.3 °C 1006.8 hPa WNW 13 km/h 19.3 km/h 68% 0.0 mm 461 W/m2
09:06 12.9 °C 7.3 °C 1006.8 hPa WNW 11.1 km/h 12.9 km/h 69% 0.0 mm 473 W/m2
09:11 12.9 °C 7.3 °C 1006.8 hPa WNW 14.3 km/h 16.1 km/h 69% 0.0 mm 483 W/m2
09:16 12.9 °C 7.6 °C 1006.8 hPa NW 1.4 km/h 14.5 km/h 70% 0.0 mm 489 W/m2
09:21 13.2 °C 7.6 °C 1007.1 hPa SW 3.2 km/h 16.1 km/h 69% 0.0 mm 504 W/m2
09:26 13.3 °C 7.7 °C 1007.1 hPa ENE 3.2 km/h 8 km/h 69% 0.0 mm 526 W/m2
09:31 13.6 °C 7.8 °C 1007.1 hPa West 11.1 km/h 16.1 km/h 68% 0.0 mm 540 W/m2
09:36 13.6 °C 7.4 °C 1007.1 hPa WNW 6.4 km/h 14.5 km/h 66% 0.0 mm 557 W/m2
09:41 13.7 °C 7.9 °C 1007.1 hPa WNW 4.7 km/h 11.3 km/h 68% 0.0 mm 578 W/m2
09:46 14 °C 8.2 °C 1007.1 hPa West 11.1 km/h 12.9 km/h 68% 0.0 mm 617 W/m2
09:51 14.1 °C 7.8 °C 1007.1 hPa WNW 3.2 km/h 16.1 km/h 66% 0.0 mm 628 W/m2
09:56 14.2 °C 8.6 °C 1007.1 hPa West 16.3 km/h 16.1 km/h 69% 0.0 mm 700 W/m2
10:01 14.4 °C 8.1 °C 1007.5 hPa WNW 7.9 km/h 17.7 km/h 66% 0.0 mm 791 W/m2
10:06 14.8 °C 8.5 °C 1007.5 hPa West 11.1 km/h 19.3 km/h 66% 0.0 mm 299 W/m2
10:11 14.4 °C 8.1 °C 1007.5 hPa NW 3.2 km/h 11.3 km/h 66% 0.0 mm 302 W/m2
10:17 14.2 °C 8.2 °C 1007.5 hPa WNW 6.4 km/h 12.9 km/h 67% 0.0 mm 413 W/m2
10:22 14.1 °C 8.1 °C 1007.5 hPa WSW 3.2 km/h 9.7 km/h 67% 0.0 mm 362 W/m2
10:27 14.3 °C 8.3 °C 1007.5 hPa WNW 11.1 km/h 12.9 km/h 67% 0.0 mm 916 W/m2
10:32 14.4 °C 8.3 °C 1007.5 hPa West 13 km/h 12.9 km/h 67% 0.0 mm 916 W/m2
10:37 14.5 °C 8.4 °C 1007.5 hPa SW 6.4 km/h 6.4 km/h 67% 0.0 mm 329 W/m2
10:42 14.6 °C 8.3 °C 1007.5 hPa WSW 4.7 km/h 11.3 km/h 66% 0.0 mm 359 W/m2
10:47 14.7 °C 8.6 °C 1007.5 hPa ESE 1.4 km/h 6.4 km/h 67% 0.0 mm 724 W/m2
10:52 14.8 °C 8.5 °C 1007.5 hPa West 4.7 km/h 11.3 km/h 66% 0.0 mm 455 W/m2
10:57 14.7 °C 8.4 °C 1007.5 hPa South 3.2 km/h 16.1 km/h 66% 0.0 mm 457 W/m2
11:02 14.8 °C 8.7 °C 1007.5 hPa NW 7.9 km/h 12.9 km/h 67% 0.0 mm 290 W/m2
11:07 15 °C 9.1 °C 1007.5 hPa NW 6.4 km/h 16.1 km/h 68% 0.0 mm 893 W/m2
11:12 15.3 °C 8.8 °C 1007.8 hPa WSW 16.3 km/h 16.1 km/h 65% 0.0 mm 865 W/m2
11:17 15.3 °C 9 °C 1007.8 hPa NW 7.9 km/h 14.5 km/h 66% 0.0 mm 309 W/m2
11:22 15 °C 8.7 °C 1007.8 hPa West 6.4 km/h 12.9 km/h 66% 0.0 mm 272 W/m2
11:27 14.9 °C 8.8 °C 1007.5 hPa WNW 6.4 km/h 11.3 km/h 67% 0.0 mm 236 W/m2
11:32 15.3 °C 9.2 °C 1007.8 hPa West 1.4 km/h 11.3 km/h 67% 0.0 mm 988 W/m2
11:37 15.7 °C 9.1 °C 1007.8 hPa SSE 3.2 km/h 11.3 km/h 65% 0.0 mm 990 W/m2
11:42 15.8 °C 9 °C 1007.8 hPa NW 3.2 km/h 11.3 km/h 64% 0.0 mm 297 W/m2
11:47 15.7 °C 9.1 °C 1007.8 hPa NNW 6.4 km/h 6.4 km/h 65% 0.0 mm 1125 W/m2
11:52 15.8 °C 8.8 °C 1007.8 hPa NNW 4.7 km/h 8 km/h 63% 0.0 mm 373 W/m2
11:57 15.8 °C 8.5 °C 1007.8 hPa NNW 3.2 km/h 12.9 km/h 62% 0.0 mm 359 W/m2
12:02 16.1 °C 9.1 °C 1007.8 hPa WNW 4.7 km/h 17.7 km/h 63% 0.0 mm 1093 W/m2
12:07 16.1 °C 9.3 °C 1008.1 hPa WNW 4.7 km/h 4.8 km/h 64% 0.0 mm 274 W/m2
12:12 16 °C 9.2 °C 1008.1 hPa NW 3.2 km/h 16.1 km/h 64% 0.0 mm 294 W/m2
12:17 16.2 °C 9.4 °C 1008.1 hPa NW 6.4 km/h 9.7 km/h 64% 0.0 mm 294 W/m2
12:22 16.4 °C 9.1 °C 1008.1 hPa NW 6.4 km/h 11.3 km/h 62% 0.0 mm 926 W/m2
12:27 16.5 °C 8.5 °C 1008.1 hPa NW 14.3 km/h 19.3 km/h 59% 0.0 mm 1039 W/m2
12:32 16.6 °C 9.3 °C 1008.1 hPa SSW 14.3 km/h 14.5 km/h 62% 0.0 mm 323 W/m2
12:37 16.3 °C 9.2 °C 1008.1 hPa WNW 7.9 km/h 11.3 km/h 63% 0.0 mm 394 W/m2
12:42 16.2 °C 8.9 °C 1008.1 hPa NW 9.7 km/h 14.5 km/h 62% 0.0 mm 1097 W/m2
12:47 16 °C 8.7 °C 1008.1 hPa WSW 6.4 km/h 6.4 km/h 62% 0.0 mm 213 W/m2
12:52 15.8 °C 8.8 °C 1008.1 hPa WNW 3.2 km/h 12.9 km/h 63% 0.0 mm 381 W/m2
12:57 16.2 °C 9.4 °C 1008.1 hPa WSW 13 km/h 12.9 km/h 64% 0.0 mm 1129 W/m2
13:02 16.1 °C 8.6 °C 1008.1 hPa WNW 13 km/h 17.7 km/h 61% 0.0 mm 190 W/m2
13:07 15.8 °C 8.8 °C 1008.5 hPa WSW 6.4 km/h 22.5 km/h 63% 0.0 mm 149 W/m2
13:12 15.5 °C 8.7 °C 1008.5 hPa West 11.1 km/h 14.5 km/h 64% 0.0 mm 197 W/m2
13:17 15.4 °C 9.1 °C 1008.5 hPa NW 4.7 km/h 19.3 km/h 66% 0.0 mm 265 W/m2
13:23 15.3 °C 8.8 °C 1008.5 hPa West 9.7 km/h 11.3 km/h 65% 0.0 mm 320 W/m2
13:28 15.5 °C 9.2 °C 1008.5 hPa NNW 6.4 km/h 19.3 km/h 66% 0.0 mm 360 W/m2
13:33 15.7 °C 9.4 °C 1008.5 hPa WNW 4.7 km/h 9.7 km/h 66% 0.0 mm 355 W/m2
13:38 15.7 °C 8.7 °C 1008.5 hPa West 4.7 km/h 16.1 km/h 63% 0.0 mm 276 W/m2
13:43 15.7 °C 8.4 °C 1008.5 hPa West 4.7 km/h 12.9 km/h 62% 0.0 mm 292 W/m2
13:48 15.8 °C 8.5 °C 1008.5 hPa WNW 4.7 km/h 12.9 km/h 62% 0.0 mm 274 W/m2
13:53 15.8 °C 9 °C 1008.5 hPa WSW 13 km/h 12.9 km/h 64% 0.0 mm 276 W/m2
13:58 15.6 °C 9 °C 1008.5 hPa WNW 6.4 km/h 9.7 km/h 65% 0.0 mm 332 W/m2
14:03 15.7 °C 9.1 °C 1008.5 hPa NW 3.2 km/h 9.7 km/h 65% 0.0 mm 378 W/m2
14:08 15.8 °C 9.2 °C 1008.5 hPa WNW 6.4 km/h 9.7 km/h 65% 0.0 mm 415 W/m2
14:13 16.1 °C 8.8 °C 1008.5 hPa WNW 6.4 km/h 12.9 km/h 62% 0.0 mm 468 W/m2
14:18 16.2 °C 8.7 °C 1008.5 hPa WNW 9.7 km/h 11.3 km/h 61% 0.0 mm 374 W/m2
14:23 16.1 °C 8.8 °C 1008.5 hPa WSW 6.4 km/h 9.7 km/h 62% 0.0 mm 417 W/m2
14:28 16.2 °C 8.4 °C 1008.5 hPa WSW 11.1 km/h 12.9 km/h 60% 0.0 mm 462 W/m2
14:33 16.3 °C 8.5 °C 1008.5 hPa WSW 4.7 km/h 8 km/h 60% 0.0 mm 605 W/m2
14:38 16.8 °C 9 °C 1008.8 hPa WSW 1.4 km/h 11.3 km/h 60% 0.0 mm 540 W/m2
14:43 17.6 °C 9.5 °C 1008.8 hPa WNW 6.4 km/h 20.9 km/h 59% 0.0 mm 1020 W/m2
14:48 17.6 °C 9.2 °C 1008.8 hPa WNW 4.7 km/h 11.3 km/h 58% 0.0 mm 394 W/m2
14:53 17.3 °C 9.5 °C 1008.8 hPa Calm   14.5 km/h 60% 0.0 mm 478 W/m2
14:58 16.9 °C 9.1 °C 1008.8 hPa West 13 km/h 14.5 km/h 60% 0.0 mm 223 W/m2
15:03 16.5 °C 9 °C 1009.1 hPa West 9.7 km/h 9.7 km/h 61% 0.0 mm 237 W/m2
15:08 16.3 °C 9 °C 1008.8 hPa WSW 4.7 km/h 17.7 km/h 62% 0.0 mm 253 W/m2
15:13 16.1 °C 8.8 °C 1009.1 hPa SW 6.4 km/h 19.3 km/h 62% 0.0 mm 237 W/m2
15:18 16 °C 9.2 °C 1009.1 hPa West 3.2 km/h 11.3 km/h 64% 0.0 mm 211 W/m2
15:23 15.8 °C 9.5 °C 1009.1 hPa WNW 13 km/h 17.7 km/h 66% 0.0 mm 200 W/m2
15:28 15.7 °C 9.4 °C 1009.1 hPa NW 4.7 km/h 6.4 km/h 66% 0.0 mm 200 W/m2
15:33 15.7 °C 9.1 °C 1009.1 hPa WSW 14.3 km/h 16.1 km/h 65% 0.0 mm 202 W/m2
15:38 15.4 °C 8.6 °C 1009.1 hPa West 6.4 km/h 14.5 km/h 64% 0.0 mm 209 W/m2
15:43 15.3 °C 8.8 °C 1009.1 hPa West 6.4 km/h 16.1 km/h 65% 0.0 mm 229 W/m2
15:48 15.4 °C 9.1 °C 1009.1 hPa West 4.7 km/h 6.4 km/h 66% 0.0 mm 253 W/m2
15:53 15.6 °C 8.8 °C 1009.1 hPa WNW 6.4 km/h 14.5 km/h 64% 0.0 mm 274 W/m2
15:58 15.7 °C 8.2 °C 1009.1 hPa WNW 7.9 km/h 12.9 km/h 61% 0.0 mm 313 W/m2
16:03 15.9 °C 8.1 °C 1009.1 hPa West 4.7 km/h 14.5 km/h 60% 0.0 mm 327 W/m2
16:08 16.1 °C 8.6 °C 1009.1 hPa West 3.2 km/h 6.4 km/h 61% 0.0 mm 332 W/m2
16:13 16.3 °C 8.8 °C 1009.1 hPa WSW 6.4 km/h 9.7 km/h 61% 0.0 mm 359 W/m2
16:18 16.5 °C 9 °C 1009.1 hPa NW 14.3 km/h 14.5 km/h 61% 0.0 mm 425 W/m2
16:23 16.6 °C 9 °C 1009.1 hPa WSW 6.4 km/h 6.4 km/h 61% 0.0 mm 452 W/m2
16:28 16.8 °C 8.7 °C 1009.1 hPa West 3.2 km/h 11.3 km/h 59% 0.0 mm 510 W/m2
16:33 17 °C 9.2 °C 1009.1 hPa West 3.2 km/h 4.8 km/h 60% 0.0 mm 454 W/m2
16:38 17.3 °C 9.2 °C 1009.1 hPa South 4.7 km/h 9.7 km/h 59% 0.0 mm 519 W/m2
16:43 17.7 °C 9.8 °C 1009.1 hPa NW 9.7 km/h 11.3 km/h 60% 0.0 mm 438 W/m2
16:48 17.8 °C 9.4 °C 1009.1 hPa West 4.7 km/h 6.4 km/h 58% 0.0 mm 538 W/m2
16:53 17.8 °C 9.2 °C 1009.1 hPa NW 3.2 km/h 9.7 km/h 57% 0.0 mm 612 W/m2
16:58 17.9 °C 9.3 °C 1009.1 hPa NW 7.9 km/h 17.7 km/h 57% 0.0 mm 404 W/m2
17:03 17.8 °C 9.2 °C 1009.1 hPa West 4.7 km/h 11.3 km/h 57% 0.0 mm 394 W/m2
17:08 17.9 °C 9.5 °C 1009.1 hPa NNW 6.4 km/h 17.7 km/h 58% 0.0 mm 638 W/m2
17:13 18.3 °C 9.4 °C 1009.1 hPa WSW 4.7 km/h 16.1 km/h 56% 0.0 mm 738 W/m2
17:18 18.2 °C 9 °C 1009.1 hPa WSW 9.7 km/h 9.7 km/h 55% 0.0 mm 232 W/m2
17:23 18.1 °C 9.4 °C 1009.1 hPa West 3.2 km/h 12.9 km/h 57% 0.0 mm 480 W/m2
17:28 18.3 °C 9.4 °C 1009.1 hPa West 6.4 km/h 9.7 km/h 56% 0.0 mm 765 W/m2
17:33 18.7 °C 9.5 °C 1009.1 hPa NW 3.2 km/h 16.1 km/h 55% 0.0 mm 784 W/m2
17:38 18.8 °C 9.6 °C 1009.1 hPa WSW 1.4 km/h 6.4 km/h 55% 0.0 mm 570 W/m2
17:43 19 °C 9.5 °C 1009.1 hPa West 11.1 km/h 16.1 km/h 54% 0.0 mm 689 W/m2
17:48 18.7 °C 9.5 °C 1009.1 hPa WNW 11.1 km/h 11.3 km/h 55% 0.0 mm 657 W/m2
17:53 18.8 °C 9.3 °C 1009.1 hPa NNW 9.7 km/h 11.3 km/h 54% 0.0 mm 619 W/m2
17:58 18.8 °C 9 °C 1009.1 hPa SW 7.9 km/h 9.7 km/h 53% 0.0 mm 606 W/m2
18:03 18.6 °C 8.3 °C 1009.1 hPa West 6.4 km/h 12.9 km/h 51% 0.0 mm 584 W/m2
18:08 18.5 °C 8.7 °C 1009.1 hPa West 13 km/h 12.9 km/h 53% 0.0 mm 578 W/m2
18:13 18.4 °C 8.6 °C 1009.5 hPa West 13 km/h 14.5 km/h 53% 0.0 mm 589 W/m2
18:18 18.4 °C 8.6 °C 1009.1 hPa WNW 13 km/h 16.1 km/h 53% 0.0 mm 541 W/m2
18:23 18.3 °C 8.6 °C 1009.1 hPa NW 4.7 km/h 6.4 km/h 53% 0.0 mm 316 W/m2
18:28 18.4 °C 8.9 °C 1009.1 hPa NNW 6.4 km/h 8 km/h 54% 0.0 mm 297 W/m2
18:34 18.3 °C 8.6 °C 1009.1 hPa WNW 4.7 km/h 9.7 km/h 53% 0.0 mm 329 W/m2
18:39 18.4 °C 8.4 °C 1009.1 hPa Calm   6.4 km/h 52% 0.0 mm 378 W/m2
18:44 18.2 °C 8.5 °C 1009.1 hPa WNW 1.4 km/h 1.6 km/h 53% 0.0 mm 174 W/m2
18:49 18.4 °C 8.9 °C 1009.1 hPa WNW 1.4 km/h 3.2 km/h 54% 0.0 mm 302 W/m2
18:54 18.7 °C 8.9 °C 1009.5 hPa WNW 6.4 km/h 11.3 km/h 53% 0.0 mm 279 W/m2
18:59 18.8 °C 8.4 °C 1009.5 hPa West 4.7 km/h 11.3 km/h 51% 0.0 mm 272 W/m2
19:04 18.6 °C 8.6 °C 1009.5 hPa NW 1.4 km/h 4.8 km/h 52% 0.0 mm 295 W/m2
19:09 18.6 °C 8.8 °C 1009.5 hPa NW 3.2 km/h 11.3 km/h 53% 0.0 mm 320 W/m2
19:14 18.5 °C 9 °C 1009.5 hPa West 9.7 km/h 9.7 km/h 54% 0.0 mm 329 W/m2
19:19 18.5 °C 9 °C 1009.5 hPa West 1.4 km/h 6.4 km/h 54% 0.0 mm 322 W/m2
19:24 18.6 °C 9.1 °C 1009.5 hPa East 3.2 km/h 4.8 km/h 54% 0.0 mm 292 W/m2
19:29 18.3 °C 9.1 °C 1009.8 hPa WSW 4.7 km/h 8 km/h 55% 0.0 mm 76 W/m2
19:34 17.8 °C 8.6 °C 1009.8 hPa NW 3.2 km/h 6.4 km/h 55% 0.0 mm 53 W/m2
19:39 17.4 °C 9.1 °C 1009.8 hPa WNW 3.2 km/h 3.2 km/h 58% 0.0 mm 42 W/m2
19:44 17.1 °C 8.8 °C 1009.8 hPa West 1.4 km/h 4.8 km/h 58% 0.0 mm 40 W/m2
19:49 16.8 °C 8.7 °C 1009.8 hPa West 3.2 km/h 4.8 km/h 59% 0.0 mm 39 W/m2
19:54 16.6 °C 8.8 °C 1009.8 hPa West 1.4 km/h 6.4 km/h 60% 0.0 mm 42 W/m2
19:59 16.4 °C 8.9 °C 1009.8 hPa West 3.2 km/h 4.8 km/h 61% 0.0 mm 42 W/m2
20:04 16.4 °C 9.3 °C 1009.8 hPa West 1.4 km/h 3.2 km/h 63% 0.0 mm 42 W/m2
20:09 16.3 °C 9.5 °C 1009.8 hPa Calm   1.6 km/h 64% 0.0 mm 44 W/m2
20:14 16.3 °C 9.7 °C 1009.8 hPa West 1.4 km/h 3.2 km/h 65% 0.0 mm 44 W/m2
20:19 16.2 °C 10.5 °C 1009.8 hPa West 1.4 km/h 3.2 km/h 69% 0.0 mm 42 W/m2
20:24 16.1 °C 10.8 °C 1009.8 hPa SSW 3.2 km/h 4.8 km/h 71% 0.0 mm 42 W/m2
20:29 15.7 °C 11.1 °C 1009.8 hPa SW 3.2 km/h 3.2 km/h 74% 0.0 mm 40 W/m2
20:34 15.3 °C 10.7 °C 1009.8 hPa SW 3.2 km/h 4.8 km/h 74% 0.0 mm 35 W/m2
20:39 15.2 °C 11.2 °C 1010.2 hPa WSW 1.4 km/h 1.6 km/h 77% 0.0 mm 32 W/m2
20:44 15.1 °C 10.7 °C 1010.2 hPa SW 3.2 km/h 4.8 km/h 75% 0.0 mm 21 W/m2
20:49 14.9 °C 11.1 °C 1010.2 hPa WSW 1.4 km/h 4.8 km/h 78% 0.0 mm 18 W/m2
20:54 14.8 °C 10.8 °C 1010.2 hPa WSW 3.2 km/h 4.8 km/h 77% 0.0 mm 19 W/m2
20:59 14.8 °C 10.6 °C 1010.2 hPa SW 1.4 km/h 3.2 km/h 76% 0.0 mm 21 W/m2
21:04 14.8 °C 10.6 °C 1010.2 hPa SW 1.4 km/h 3.2 km/h 76% 0.0 mm 28 W/m2
21:09 14.8 °C 10.8 °C 1010.2 hPa SW 1.4 km/h 3.2 km/h 77% 0.0 mm 18 W/m2
21:14 14.8 °C 11 °C 1010.2 hPa SW 3.2 km/h 3.2 km/h 78% 0.0 mm 14 W/m2
21:19 14.6 °C 11 °C 1010.2 hPa SW 1.4 km/h 3.2 km/h 79% 0.0 mm 14 W/m2
21:24 14.4 °C 10.8 °C 1010.2 hPa SW 1.4 km/h 1.6 km/h 79% 0.0 mm 11 W/m2
21:29 14.2 °C 10.6 °C 1010.2 hPa SW 1.4 km/h 3.2 km/h 79% 0.0 mm 7 W/m2
21:34 13.9 °C 10.3 °C 1010.2 hPa SW 1.4 km/h 3.2 km/h 79% 0.0 mm 5 W/m2
21:39 13.6 °C 10 °C 1010.2 hPa SW 1.4 km/h 3.2 km/h 79% 0.0 mm 0 W/m2
21:44 13.3 °C 9.9 °C 1010.5 hPa SW 1.4 km/h 3.2 km/h 80% 0.0 mm 0 W/m2
21:49 13.1 °C 9.7 °C 1010.5 hPa SW 1.4 km/h 3.2 km/h 80% 0.0 mm 0 W/m2
21:54 12.9 °C 9.5 °C 1010.5 hPa SW 1.4 km/h 3.2 km/h 80% 0.0 mm 0 W/m2
21:59 12.7 °C 9.3 °C 1010.5 hPa SW 1.4 km/h 3.2 km/h 80% 0.0 mm 0 W/m2
22:04 12.6 °C 9.4 °C 1010.8 hPa SW 1.4 km/h 3.2 km/h 81% 0.0 mm 0 W/m2
22:09 12.4 °C 9.2 °C 1010.8 hPa SW 1.4 km/h 1.6 km/h 81% 0.0 mm 0 W/m2
22:14 12.3 °C 9.3 °C 1010.8 hPa SW 1.4 km/h 1.6 km/h 82% 0.0 mm 0 W/m2
22:19 12.2 °C 9 °C 1010.8 hPa Calm     81% 0.0 mm 0 W/m2
22:24 12.1 °C 9.1 °C 1010.8 hPa Calm     82% 0.0 mm 0 W/m2
22:29 12 °C 9 °C 1011.2 hPa Calm     82% 0.0 mm 0 W/m2
22:34 11.8 °C 8.8 °C 1011.2 hPa SW 1.4 km/h 1.6 km/h 82% 0.0 mm 0 W/m2
22:39 11.7 °C 8.7 °C 1011.2 hPa Calm     82% 0.0 mm 0 W/m2
22:44 11.6 °C 8.6 °C 1011.2 hPa Calm     82% 0.0 mm 0 W/m2
22:49 11.4 °C 8.4 °C 1011.2 hPa Calm     82% 0.0 mm 0 W/m2
22:54 11.3 °C 8.3 °C 1011.2 hPa Calm     82% 0.0 mm 0 W/m2
22:59 11.2 °C 8.4 °C 1011.2 hPa Calm     83% 0.0 mm 0 W/m2
23:04 11 °C 8.2 °C 1011.2 hPa Calm     83% 0.0 mm 0 W/m2
23:09 10.9 °C 8.3 °C 1011.2 hPa Calm     84% 0.0 mm 0 W/m2
23:14 10.8 °C 8.4 °C 1011.2 hPa Calm   1.6 km/h 85% 0.0 mm 0 W/m2
23:19 10.8 °C 8.6 °C 1011.2 hPa Calm     86% 0.0 mm 0 W/m2
23:24 10.9 °C 8.6 °C 1011.5 hPa West 1.4 km/h 4.8 km/h 86% 0.0 mm 0 W/m2
23:29 11.4 °C 8.8 °C 1011.5 hPa WNW 3.2 km/h 4.8 km/h 84% 0.0 mm 0 W/m2
23:34 11.6 °C 8.8 °C 1011.5 hPa West 3.2 km/h 4.8 km/h 83% 0.0 mm 0 W/m2
23:39 11.6 °C 8.8 °C 1011.5 hPa West 1.4 km/h 3.2 km/h 83% 0.0 mm 0 W/m2
23:44 11.4 °C 8.8 °C 1011.5 hPa West 1.4 km/h 3.2 km/h 84% 0.0 mm 0 W/m2
23:49 11.3 °C 8.7 °C 1011.5 hPa West 1.4 km/h 3.2 km/h 84% 0.0 mm 0 W/m2
23:54 11.2 °C 8.6 °C 1011.5 hPa Calm     84% 0.0 mm 0 W/m2
23:59 11.1 °C 8.7 °C 1011.5 hPa Calm   3.2 km/h 85% 0.0 mm 0 W/m2
Juneau County Weather
Compliments of Weather Underground - 4 mb